Location: Roswell
(33.3943°N, 104.5230°W)
Time: 10:08:07
(UTC+00:00)

Vanguard 3 - All Passes

Search period start: 07 November 2024 00:00
Search period end: 17 November 2024 00:00
Orbit: 508 x 3221 km, 33.3° (Epoch: 06 November)

Date Brightness Start Highest point End Pass type
(mag) Time Alt. Az. Time Alt. Az. Time Alt. Az.
07 Nov - 01:12:13 10° W 01:19:54 84° S 01:24:29 10° ESE visible
07 Nov - 03:26:27 10° W 03:30:30 26° SSW 03:33:45 10° SSE visible
07 Nov - 17:11:20 10° SSE 17:19:13 14° SE 17:26:08 10° ESE daylight
07 Nov - 19:18:37 10° SSW 19:33:50 38° SSE 19:43:54 10° E daylight
07 Nov - 21:33:16 10° WSW 21:47:37 69° SSE 21:55:34 10° E daylight
07 Nov - 23:49:59 10° W 00:00:17 90° N 00:05:57 10° E daylight
08 Nov - 02:05:20 10° W 02:11:43 56° SSW 02:15:50 10° ESE visible
08 Nov - 17:58:19 10° SSW 18:12:16 27° SE 18:22:55 10° E daylight
08 Nov - 20:10:33 10° SW 20:26:42 55° SSE 20:36:23 10° E daylight
08 Nov - 22:26:57 10° WSW 22:40:09 84° S 22:47:16 10° E daylight
09 Nov - 00:43:34 10° W 00:52:26 82° S 00:57:30 10° ESE visible
09 Nov - 02:58:29 10° W 03:03:06 27° SSW 03:06:33 10° SSE visible
09 Nov - 16:40:37 10° S 16:50:31 16° SE 16:59:14 10° ESE daylight
09 Nov - 18:48:42 10° SSW 19:05:15 42° SSE 19:16:30 10° E daylight
09 Nov - 21:03:39 10° WSW 21:19:27 73° SSE 21:28:21 10° E daylight
09 Nov - 23:20:52 10° W 23:32:35 90° N 23:38:55 10° E daylight
10 Nov - 01:36:52 10° W 01:44:16 56° SSW 01:48:48 10° SE visible
10 Nov - 17:28:19 10° SSW 17:43:27 30° SE 17:55:23 10° E daylight
10 Nov - 19:40:44 10° SW 19:58:11 59° SSE 20:08:59 10° E daylight
10 Nov - 21:57:28 10° WSW 22:12:07 86° S 22:20:07 10° E daylight
11 Nov - 00:14:38 10° W 00:24:50 81° SSW 00:30:28 10° ESE visible
11 Nov - 02:30:15 10° W 02:35:37 27° SW 02:39:24 10° SSE visible
11 Nov - 16:10:21 10° S 16:21:37 18° SE 16:31:47 10° ESE daylight
11 Nov - 18:18:52 10° SW 18:36:26 45° SSE 18:48:54 10° E daylight
11 Nov - 20:33:55 10° WSW 20:51:04 76° SSE 21:01:01 10° E daylight
11 Nov - 22:51:33 10° W 23:04:42 90° N 23:11:48 10° E daylight
12 Nov - 01:08:08 10° W 01:16:43 56° SSW 01:21:43 10° SE visible
12 Nov - 16:58:30 10° SSW 17:14:27 32° SE 17:27:35 10° E daylight
12 Nov - 19:10:58 10° SW 19:29:25 62° SSE 19:41:25 10° E daylight
12 Nov - 21:27:51 10° W 21:43:55 87° S 21:52:51 10° E daylight
12 Nov - 23:45:29 10° W 23:57:04 80° SSW 00:03:22 10° ESE daylight
13 Nov - 02:01:45 10° W 02:08:01 29° SW 02:12:14 10° SSE visible
13 Nov - 15:40:26 10° S 15:52:35 20° SE 16:03:55 10° E daylight
13 Nov - 17:49:09 10° SW 18:07:23 48° SSE 18:21:05 10° E daylight
13 Nov - 20:04:12 10° WSW 20:22:28 78° SSE 20:33:32 10° E daylight
13 Nov - 22:22:02 10° W 22:36:39 90° SSE 22:44:36 10° E daylight
14 Nov - 00:39:10 10° W 00:49:00 56° SSW 00:54:35 10° SE visible
14 Nov - 02:57:29 10° WSW 02:58:51 11° SW 03:00:06 10° SSW visible
14 Nov - 16:28:53 10° SSW 16:45:16 35° SE 16:59:31 10° E daylight
14 Nov - 18:41:16 10° SW 19:00:27 65° SSE 19:13:40 10° E daylight
14 Nov - 20:58:08 10° W 21:15:29 88° S 21:25:27 10° E daylight
14 Nov - 23:16:06 10° W 23:29:08 80° SSW 23:36:11 10° ESE daylight
15 Nov - 01:32:58 10° W 01:40:19 30° SW 01:45:02 10° SSE visible
15 Nov - 15:10:50 10° S 15:23:24 22° SE 15:35:42 10° E daylight
15 Nov - 17:19:35 10° SW 17:38:08 51° SSE 17:53:03 10° E daylight
15 Nov - 19:34:29 10° WSW 19:53:38 80° SSE 20:05:53 10° E daylight
15 Nov - 21:52:23 10° W 22:08:24 89° S 22:17:17 10° E daylight
16 Nov - 00:09:57 10° W 00:21:07 56° SSW 00:27:23 10° SE visible
16 Nov - 02:28:35 10° WSW 02:31:04 12° SW 02:33:11 10° SSW visible
16 Nov - 15:59:28 10° SSW 16:15:55 37° SE 16:31:12 10° E daylight
16 Nov - 18:11:41 10° SW 18:31:15 68° SSE 18:45:44 10° ENE daylight
16 Nov - 20:28:24 10° W 20:46:50 89° S 20:57:55 10° E daylight
16 Nov - 22:46:32 10° W 23:01:00 79° SSW 23:08:54 10° ESE daylight
